Location: Unspecified
(0.0000°N, 0.0000°E)
Time: 20:51:40
(UTC+00:00)

Tiros 1 despin weight - Pass Details

Date: 01 June 2022
Orbit: 591 x 639 km, 48.2° (Epoch: 25 June)

Event Time Altitude Azimuth Distance (km) Brightness Sun altitude
Rises 01:42:52 0° 293° (WNW) 2,808 - -56.2°
Reaches altitude 10° 01:45:42 10° 275° (W) 1,913 - -55.7°
Maximum altitude 01:48:46 19° 230° (SW) 1,443 - -55.1°
Drops below altitude 10° 01:51:53 10° 185° (S) 1,931 - -54.5°
Sets 01:54:46 0° 166° (SSE) 2,843 - -54.0°
